(°C)
26°
28°
29°
30°
31°
31°
32°
(°C)
28°
29°
29°
30°
31°
31°
31°
KB
BKB
BKB
BKB
BKB
KB
BKB
(km/saat)
8-19
9-19
10-18
12-21
12-19
13-20
15-21
(mm)
0
0
0
0
0
0
0
(%)
0
0
0
0
0
5
5

Güneşin açısı

/ 36°
sun-icon
UV 8
05:14
20:47
Azalan ay (190°)
21:56
05:31

44.1°K 15.3°D (LDZD) için METAR

Zaman Koşullar Sıcaklık/
Çiy noktası
Rüzgar Görünürlük Hava Bulutlar Basınç Değiştir Ham
VFR 26°C / 20°C 310º 11kt >10km - Clouds and Visibility OK 1015 No Significant change LDZD 250630Z 31011KT CAVOK 26/20 Q1015 NOSIG
VFR 25°C / 20°C 310º variable 260º to 340º 9kt >10km - Clouds and Visibility OK 1015 No Significant change LDZD 250600Z 31009KT 260V340 CAVOK 25/20 Q1015 NOSIG
VFR 24°C / 22°C 310º variable 280º to 340º 7kt >10km - Clouds and Visibility OK 1015 No Significant change LDZD 250530Z 31007KT 280V340 CAVOK 24/22 Q1015 NOSIG
VFR 23°C / 21°C 300º 4kt >10km - Clouds and Visibility OK 1015 Becoming: Wind 300º 8kt. LDZD 250500Z 30004KT CAVOK 23/21 Q1015 BECMG 30008KT
VFR 21°C / 20°C 270º 3kt >10km - Clouds and Visibility OK 1015 No Significant change LDZD 250430Z 27003KT CAVOK 21/20 Q1015 NOSIG
VFR 20°C / 20°C variable 0kt >10km - Clouds and Visibility OK 1015 No Significant change LDZD 250400Z 00000KT CAVOK 20/20 Q1015 NOSIG
VFR 21°C / 20°C variable 2kt >10km - Clouds and Visibility OK 1015 No Significant change LDZD 250330Z VRB02KT CAVOK 21/20 Q1015 NOSIG
VFR 21°C / 20°C 30º 5kt >10km - Clouds and Visibility OK 1015 No Significant change LDZD 250300Z 03005KT CAVOK 21/20 Q1015 NOSIG
VFR 20°C / 19°C variable 2kt >10km - Clouds and Visibility OK 1015 No Significant change LDZD 250230Z VRB02KT CAVOK 20/19 Q1015 NOSIG
VFR 20°C / 19°C 230º 1kt >10km - Clouds and Visibility OK 1015 No Significant change LDZD 250200Z 23001KT CAVOK 20/19 Q1015 NOSIG
VFR 20°C / 19°C variable 0kt >10km - Clouds and Visibility OK 1015 - LDZD 250130Z 00000KT CAVOK 20/19 Q1015
VFR 21°C / 19°C variable 1kt >10km - Clouds and Visibility OK 1015 - LDZD 250100Z VRB01KT CAVOK 21/19 Q1015
VFR 21°C / 19°C variable 1kt >10km - Clouds and Visibility OK 1015 - LDZD 250030Z VRB01KT CAVOK 21/19 Q1015
VFR 21°C / 19°C variable 0kt >10km - Clouds and Visibility OK 1015 No Significant change LDZD 250000Z 00000KT CAVOK 21/19 Q1015 NOSIG
VFR 21°C / 19°C variable 0kt >10km - Clouds and Visibility OK 1015 No Significant change LDZD 242330Z 00000KT CAVOK 21/19 Q1015 NOSIG
VFR 21°C / 20°C variable 0kt >10km - Clouds and Visibility OK 1015 No Significant change LDZD 242300Z 00000KT CAVOK 21/20 Q1015 NOSIG
VFR 22°C / 20°C variable 0kt >10km - Clouds and Visibility OK 1015 No Significant change LDZD 242230Z 00000KT CAVOK 22/20 Q1015 NOSIG
VFR 22°C / 20°C variable 1kt >10km - Clouds and Visibility OK 1015 No Significant change LDZD 242200Z VRB01KT CAVOK 22/20 Q1015 NOSIG
VFR 22°C / 20°C 10º 2kt >10km - Clouds and Visibility OK 1015 No Significant change LDZD 242130Z 01002KT CAVOK 22/20 Q1015 NOSIG
VFR 23°C / 21°C variable 0kt >10km - Clouds and Visibility OK 1015 No Significant change LDZD 242100Z 00000KT CAVOK 23/21 Q1015 NOSIG
VFR 25°C / 21°C variable 2kt >10km - Clouds and Visibility OK 1015 No Significant change LDZD 242030Z VRB02KT CAVOK 25/21 Q1015 NOSIG
VFR 25°C / 22°C 130º variable 100º to 170º 5kt >10km - Clouds and Visibility OK 1015 No Significant change LDZD 242000Z 13005KT 100V170 CAVOK 25/22 Q1015 NOSIG
VFR 25°C / 22°C 100º 5kt >10km - Clouds and Visibility OK 1015 No Significant change LDZD 241930Z 10005KT CAVOK 25/22 Q1015 NOSIG
VFR 26°C / 22°C 110º variable 080º to 140º 6kt >10km - Clouds and Visibility OK 1015 No Significant change LDZD 241900Z 11006KT 080V140 CAVOK 26/22 Q1015 NOSIG

VFR

26°C / 20°C

[Daha fazla]
Rüzgar 310º 11kt
Görünürlük >10km
Hava -
Bulutlar Clouds and Visibility OK
Basınç 1015
Değiştir No Significant change
Ham LDZD 250630Z 31011KT CAVOK 26/20 Q1015 NOSIG

VFR

25°C / 20°C

[Daha fazla]
Rüzgar 310º variable 260º to 340º 9kt
Görünürlük >10km
Hava -
Bulutlar Clouds and Visibility OK
Basınç 1015
Değiştir No Significant change
Ham LDZD 250600Z 31009KT 260V340 CAVOK 25/20 Q1015 NOSIG

VFR

24°C / 22°C

[Daha fazla]
Rüzgar 310º variable 280º to 340º 7kt
Görünürlük >10km
Hava -
Bulutlar Clouds and Visibility OK
Basınç 1015
Değiştir No Significant change
Ham LDZD 250530Z 31007KT 280V340 CAVOK 24/22 Q1015 NOSIG

VFR

23°C / 21°C

[Daha fazla]
Rüzgar 300º 4kt
Görünürlük >10km
Hava -
Bulutlar Clouds and Visibility OK
Basınç 1015
Değiştir Becoming: Wind 300º 8kt.
Ham LDZD 250500Z 30004KT CAVOK 23/21 Q1015 BECMG 30008KT

VFR

21°C / 20°C

[Daha fazla]
Rüzgar 270º 3kt
Görünürlük >10km
Hava -
Bulutlar Clouds and Visibility OK
Basınç 1015
Değiştir No Significant change
Ham LDZD 250430Z 27003KT CAVOK 21/20 Q1015 NOSIG

VFR

20°C / 20°C

[Daha fazla]
Rüzgar variable 0kt
Görünürlük >10km
Hava -
Bulutlar Clouds and Visibility OK
Basınç 1015
Değiştir No Significant change
Ham LDZD 250400Z 00000KT CAVOK 20/20 Q1015 NOSIG

VFR

21°C / 20°C

[Daha fazla]
Rüzgar variable 2kt
Görünürlük >10km
Hava -
Bulutlar Clouds and Visibility OK
Basınç 1015
Değiştir No Significant change
Ham LDZD 250330Z VRB02KT CAVOK 21/20 Q1015 NOSIG

VFR

21°C / 20°C

[Daha fazla]
Rüzgar 30º 5kt
Görünürlük >10km
Hava -
Bulutlar Clouds and Visibility OK
Basınç 1015
Değiştir No Significant change
Ham LDZD 250300Z 03005KT CAVOK 21/20 Q1015 NOSIG

VFR

20°C / 19°C

[Daha fazla]
Rüzgar variable 2kt
Görünürlük >10km
Hava -
Bulutlar Clouds and Visibility OK
Basınç 1015
Değiştir No Significant change
Ham LDZD 250230Z VRB02KT CAVOK 20/19 Q1015 NOSIG

VFR

20°C / 19°C

[Daha fazla]
Rüzgar 230º 1kt
Görünürlük >10km
Hava -
Bulutlar Clouds and Visibility OK
Basınç 1015
Değiştir No Significant change
Ham LDZD 250200Z 23001KT CAVOK 20/19 Q1015 NOSIG

VFR

20°C / 19°C

[Daha fazla]
Rüzgar variable 0kt
Görünürlük >10km
Hava -
Bulutlar Clouds and Visibility OK
Basınç 1015
Değiştir -
Ham LDZD 250130Z 00000KT CAVOK 20/19 Q1015

VFR

21°C / 19°C

[Daha fazla]
Rüzgar variable 1kt
Görünürlük >10km
Hava -
Bulutlar Clouds and Visibility OK
Basınç 1015
Değiştir -
Ham LDZD 250100Z VRB01KT CAVOK 21/19 Q1015

VFR

21°C / 19°C

[Daha fazla]
Rüzgar variable 1kt
Görünürlük >10km
Hava -
Bulutlar Clouds and Visibility OK
Basınç 1015
Değiştir -
Ham LDZD 250030Z VRB01KT CAVOK 21/19 Q1015

VFR

21°C / 19°C

[Daha fazla]
Rüzgar variable 0kt
Görünürlük >10km
Hava -
Bulutlar Clouds and Visibility OK
Basınç 1015
Değiştir No Significant change
Ham LDZD 250000Z 00000KT CAVOK 21/19 Q1015 NOSIG

VFR

21°C / 19°C

[Daha fazla]
Rüzgar variable 0kt
Görünürlük >10km
Hava -
Bulutlar Clouds and Visibility OK
Basınç 1015
Değiştir No Significant change
Ham LDZD 242330Z 00000KT CAVOK 21/19 Q1015 NOSIG

VFR

21°C / 20°C

[Daha fazla]
Rüzgar variable 0kt
Görünürlük >10km
Hava -
Bulutlar Clouds and Visibility OK
Basınç 1015
Değiştir No Significant change
Ham LDZD 242300Z 00000KT CAVOK 21/20 Q1015 NOSIG

VFR

22°C / 20°C

[Daha fazla]
Rüzgar variable 0kt
Görünürlük >10km
Hava -
Bulutlar Clouds and Visibility OK
Basınç 1015
Değiştir No Significant change
Ham LDZD 242230Z 00000KT CAVOK 22/20 Q1015 NOSIG

VFR

22°C / 20°C

[Daha fazla]
Rüzgar variable 1kt
Görünürlük >10km
Hava -
Bulutlar Clouds and Visibility OK
Basınç 1015
Değiştir No Significant change
Ham LDZD 242200Z VRB01KT CAVOK 22/20 Q1015 NOSIG

VFR

22°C / 20°C

[Daha fazla]
Rüzgar 10º 2kt
Görünürlük >10km
Hava -
Bulutlar Clouds and Visibility OK
Basınç 1015
Değiştir No Significant change
Ham LDZD 242130Z 01002KT CAVOK 22/20 Q1015 NOSIG

VFR

23°C / 21°C

[Daha fazla]
Rüzgar variable 0kt
Görünürlük >10km
Hava -
Bulutlar Clouds and Visibility OK
Basınç 1015
Değiştir No Significant change
Ham LDZD 242100Z 00000KT CAVOK 23/21 Q1015 NOSIG

VFR

25°C / 21°C

[Daha fazla]
Rüzgar variable 2kt
Görünürlük >10km
Hava -
Bulutlar Clouds and Visibility OK
Basınç 1015
Değiştir No Significant change
Ham LDZD 242030Z VRB02KT CAVOK 25/21 Q1015 NOSIG

VFR

25°C / 22°C

[Daha fazla]
Rüzgar 130º variable 100º to 170º 5kt
Görünürlük >10km
Hava -
Bulutlar Clouds and Visibility OK
Basınç 1015
Değiştir No Significant change
Ham LDZD 242000Z 13005KT 100V170 CAVOK 25/22 Q1015 NOSIG

VFR

25°C / 22°C

[Daha fazla]
Rüzgar 100º 5kt
Görünürlük >10km
Hava -
Bulutlar Clouds and Visibility OK
Basınç 1015
Değiştir No Significant change
Ham LDZD 241930Z 10005KT CAVOK 25/22 Q1015 NOSIG

VFR

26°C / 22°C

[Daha fazla]
Rüzgar 110º variable 080º to 140º 6kt
Görünürlük >10km
Hava -
Bulutlar Clouds and Visibility OK
Basınç 1015
Değiştir No Significant change
Ham LDZD 241900Z 11006KT 080V140 CAVOK 26/22 Q1015 NOSIG

44.1°K 15.3°D (LDZD) için TAF

From till


Maximum Temperature 32ºC on . Minimum Temperature 17ºC on .
From till Wind 300º 8kt. Visibility 10km or more. Nil Significant Cloud.
Temporarly from till Wind 300º 14kt.
Becoming from till Wind 350º 5kt. Visibility 10km or more. Nil Significant Cloud.

Ham: TAF LDZD 250525Z 2506/2606 30008KT CAVOK TX32/2513Z TN17/2603Z TEMPO 2509/2516 30014KT BECMG 2518/2520 35005KT

44.1°K 15.3°D için şu anki uydu ve yağmur görüntüleri

Konum işaretleyici 44.1°K 15.3°D üzerine yerleştirilir. [Daha fazla]

Gerçek zamanlı uydu görüntüsü gündüz süresince görülür ışığı gece süresince kızılötesi ışınım ile birleştirir. Gece kızılötesi ışınım sıcaklık farklarını algılayabildiğinden dolayı görüntü karanlık değildir. Ancak düşük bulutları ve sisi yer sıcaklığından ayırmak zordur ve bu nedenle gece boyunca neredeyse görünmez olabilirler. Avrupa için Meteosat uydu görüntüleri gerçek zamanlı olarak her 5 dakikada bir güncellenir. GOES-16/GOES-17 (Kuzey ve Güney Amerika) ve Himawari (Asya) görüntüleri her 10 dakikada bir güncellenir.

Yağış radar ve uydudan tahmin edilir. Uydulardan gece yapılan yağış tahminleri gündüz yapılan tahminlere göre daha az kusursuzdur. Turuncu çarpılar şimşeklerin saptandığı yerleri gösterir (Avrupa üzeri).

Copyright 2021 EUMETSAT / meteoblue. nowcast tarafından sağlanan şimşek verileri.

44.1°K 15.3°D için radar ve yağış nowcast

Konum işaretleyicisi 44.1°K 15.3°D üzerine yerleştirilir. Bu animasyon son saat içerisindeki yağış radarını ve 1h tahminini gösterir. Hafif yağmur veya kar yağışı radar için görünmez olabilir. Yağış şiddeti açık mavi ile koyu mor arasındaki renklerle kodlanmıştır.